CZ-6A DEB

Satellite information

Favourite Embed

Satellite Type and Status

DEBRISIN ORBIT

Key statistics

Satellite CZ-6A DEB at a glance.

Uptime

440

Days in orbit

Revolutions

≈ 14.2

Per day

Orbit

LEO

Low Earth Orbit

Inclination

89.0

Latest

Satellite identification and parameters

Extended collection of information and parameters for CZ-6A DEB.

Object identification

Identified? True

Debris? True

Object name: CZ-6A DEB

International designator: 2024-140ACA

Object number (NORAD): 61810

Object ID (CCSDS): 61810

Country: PEOPLES REPUBLIC OF CHINA (PRC)

Current information (Y/N): Y

RCS size: SMALL

Orbital parameters

Period: 101.209 minutes

Inclination: 88.9919 deg

SMA: 7194.054 km

Apoapsis: 956.475 km

Periapsis: 675.363 km

RAAN: 301.6127 deg

Eccentricy: 0.01953781

Argument of periapsis: 163.9147 deg

Mean anomaly: 196.8371 deg

Mean motion: 14.22794691 rev/day

Mean motion (dot): 0.00006326 rev/day2

B* drag term: 0.0023125515 1/REarth

Two-line elements (TLE)

Creation date: Oct. 20, 2025, 2:10 a.m.

Reference frame: TEME

Reference center: EARTH

Epoch: Oct. 19, 2025, 6:10 p.m. UTC

TLE line 0: 0 CZ-6A DEB

TLE line 1: 1 61810U 24140ACA 25292.75760049 .00006326 00000-0 23126-2 0 9998

TLE line 2: 2 61810 88.9919 301.6127 0195378 163.9147 196.8371 14.22794691 58391

Live tracking on map

Real-time ground track for satellite CZ-6A DEB.

In-orbit conjunctions

A list of the most updated potential collisions computed for object CZ-6A DEB.

Target Orbit TCA Probability of collision Miss distance Type
FENGYUN 1C DEB SSO 2025-03-23 17:28:44 0.0004645964 52.0 (m) DEBRIS
CZ-4 DEB SSO 2025-02-18 03:05:45 0.0001194242 528.0 (m) DEBRIS
METEOR 2-7 DEB LEO 2025-02-02 23:28:51 0.0001018987 437.0 (m) DEBRIS
NOAA 16 DEB SSO 2025-01-17 13:48:59 0.0005372055 126.0 (m) DEBRIS
CZ-6A DEB LEO 2024-11-16 13:33:10 0.000176028 174.0 (m) DEBRIS

Associated space launch

18 Low Earth Orbit communication satellites with Ku, Q and V band payloads for the G60 constellation operated by Shanghai Spacecom Satellite Technology (SSST) with funding backed by the Shanghai local government. Initial constellation will consist of 1296 satellites by 2027 with long term plans to expand it to 12000 satellites.

CZ-6A DEB was lifted into orbit during the mission ‘Long March 6A | G60 Polar Group 01’, on board a Long March 6A space rocket.

The launch took place on Aug. 6, 2024, 6:42 a.m. from Launch Complex 9A.

For more information about the launch, click the button.

Launch to space Long March 6A | G60 Polar Group 01
Long March 6A | G60 Polar Group 01

Agency: N/A

Status: Launch Successful

Launch date: Aug. 6, 2024, 6:42 a.m. UTC

Rocket: Long March 6A

Launch pad: Launch Complex 9A

Location: Taiyuan Satellite Launch Center, People's Republic of China

...

Latest news about this satellite

News about space launch
Brightness of first Chinese broadband constellation satellites alarms astronomers

The first satellites of a Chinese broadband constellation are significantly brighter than those of Western systems, posing a new challenge for astronomers.

News about space launch
Chinese rocket stage breaks up into cloud of more than 700 pieces of space debris

HELSINKI — A Chinese Long March 6A rocket’s upper stage has fragmented into a cloud of over 700 pieces of space debris, adding to concerns about long-term orbital safety. China […]

News about space launch
China's Thousand Sails Megaconstellation Kicks Off with Dangerous Debris Field

China's Thousand Sails Megaconstellation Kicks Off with Dangerous Debris Field


Newsletter sign-up

Weekly statistics, charts and insights to help you stay on top of the space industry.